Crosby, ND

8:39 PM CST on February 23, 2017 (GMT -0600)
Crosby

Weather History for KD50 - November, 2013

Change the Weather History Date:

Tuesday, November 5, 2013

  Actual Average (KISN) Record (KISN)
Temperature  
Mean Temperature 27 °F -  
Max Temperature 35 °F 43 °F 70 °F (1916)
Min Temperature 19 °F 20 °F -15 °F (1935)
Degree Days  
Heating Degree Days 38    
Moisture  
Dew Point 18 °F    
Average Humidity 72    
Maximum Humidity 100    
Minimum Humidity 44    
Precipitation  
Precipitation 0.00 in - - ()
Sea Level Pressure  
Sea Level Pressure 30.06 in    
Wind  
Wind Speed 11 mph (SW)    
Max Wind Speed 17 mph    
Max Gust Speed 24 mph    
Visibility 9 miles    
Events      
Averages and records for this station are not official NWS values.
T = Trace of Precipitation, MM = Missing Value Source: NWS Daily Summary

Daily Weather History Graph

Daily Weather History Graph

Search for Another Location

Airport or City:

Trip Planner

Search our weather history database for the weather conditions in past years. The results will help you decide how hot, cold, wet, or windy it might be!

Date:

Astronomy

Nov. 05, 2013 Rise Set
Actual Time 7:47 AM CST 5:25 PM CST
Civil Twilight 7:13 AM CST 5:59 PM CST
Nautical Twilight 6:35 AM CST 6:36 PM CST
Astronomical Twilight 5:59 AM CST 7:13 PM CST
Moon 10:12 AM CST (11/5) 7:21 PM CST (11/5)
Length of Visible Light 10h 45m
Length of Day
9h 38m
Waxing Crescent, 7% of the Moon is Illuminated
Nov 5
Waxing Crescent
Nov 9
First Quarter
Nov 17
Full
Nov 25
Last Quarter
Dec 2
New

Hourly Weather History & Observations

Time (CST) Temp. Windchill Dew Point Humidity Pressure Visibility Wind Dir Wind Speed Gust Speed Precip Events Conditions
12:15 AM - - - N/A% - - North - - N/A   Unknown
12:35 AM - - - N/A% - - North - - N/A   Unknown
12:55 AM - - - N/A% - - North - - N/A   Unknown
1:15 AM - - - N/A% - - North - - N/A   Unknown
1:35 AM - - - N/A% - - North - - N/A   Unknown
1:55 AM - - - N/A% - - North - - N/A   Unknown
2:15 AM - - - N/A% - - North - - N/A   Unknown
2:35 AM - - - N/A% - - North - - N/A   Unknown
2:55 AM - - - N/A% - - North - - N/A   Unknown
3:15 AM - - - N/A% - - North - - N/A   Unknown
3:35 AM - - - N/A% - - North - - N/A   Unknown
3:55 AM - - - N/A% - - North - - N/A   Unknown
4:15 AM - - - N/A% - - North - - N/A   Unknown
4:35 AM - - - N/A% - - North - - N/A   Unknown
4:55 AM - - - N/A% - - North - - N/A   Unknown
5:15 AM - - - N/A% - - North - - N/A   Unknown
5:35 AM - - - N/A% - - North - - N/A   Unknown
5:55 AM - - - N/A% - - North - - N/A   Unknown
6:15 AM - - - N/A% - - North - - N/A   Unknown
6:35 AM - - - N/A% - - North - - N/A   Unknown
6:55 AM - - - N/A% - - North - - N/A   Unknown
7:15 AM - - - N/A% - - North - - N/A   Unknown
7:35 AM - - - N/A% - - North - - N/A   Unknown
7:55 AM - - - N/A% - - North - - N/A   Unknown
8:15 AM - - - N/A% - - North - - N/A   Unknown
8:35 AM - - - N/A% - - North - - N/A   Unknown
8:55 AM - - - N/A% - - North - - N/A   Unknown
9:15 AM - - - N/A% - - North - - N/A   Unknown
9:35 AM - - - N/A% - - North - - N/A   Unknown
9:55 AM - - - N/A% - - North - - N/A   Unknown
10:15 AM - - - N/A% 30.11 in - West 16.1 mph - N/A   Unknown
10:35 AM 24.8 °F 11.9 °F 15.8 °F 69% 30.12 in 10.0 mi West 16.1 mph - N/A   Unknown
10:55 AM 26.6 °F 13.8 °F 15.8 °F 64% 30.11 in 4.0 mi West 17.3 mph 24.2 mph N/A   Haze
11:15 AM 26.6 °F 15.2 °F 15.8 °F 64% 30.12 in 5.0 mi West 13.8 mph - N/A   Haze
11:35 AM 26.6 °F 15.7 °F 15.8 °F 64% 30.12 in 7.0 mi West 12.7 mph - N/A   Clear
11:55 AM 28.4 °F 18.5 °F 15.8 °F 59% 30.12 in 8.0 mi West 11.5 mph - N/A   Clear
12:15 PM 28.4 °F 17.5 °F 15.8 °F 59% 30.12 in 7.0 mi West 13.8 mph - N/A   Clear
12:35 PM 30.2 °F 20.8 °F 15.8 °F 55% 30.11 in 7.0 mi WSW 11.5 mph 16.1 mph N/A   Clear
12:55 PM 32.0 °F 22.1 °F 17.6 °F 55% 30.10 in 9.0 mi SW 13.8 mph - N/A   Clear
1:15 PM 32.0 °F 24.2 °F 15.8 °F 51% 30.09 in 9.0 mi West 9.2 mph - N/A   Clear
1:35 PM 32.0 °F 23.0 °F 15.8 °F 51% 30.08 in 10.0 mi West 11.5 mph - N/A   Scattered Clouds
1:55 PM 32.0 °F 22.1 °F 15.8 °F 51% 30.07 in 10.0 mi WSW 13.8 mph - N/A   Mostly Cloudy
2:15 PM 33.8 °F 25.8 °F 15.8 °F 48% 30.07 in 10.0 mi West 10.4 mph - N/A   Partly Cloudy
2:35 PM 33.8 °F 25.3 °F 15.8 °F 48% 30.06 in 10.0 mi WSW 11.5 mph 16.1 mph N/A   Clear
2:55 PM 35.6 °F 28.6 °F 15.8 °F 44% 30.06 in 10.0 mi West 9.2 mph - N/A   Clear
3:15 PM 32.0 °F 24.8 °F 15.8 °F 51% 30.05 in 10.0 mi West 8.1 mph - N/A   Clear
3:35 PM 32.0 °F 26.4 °F 17.6 °F 55% 30.05 in 10.0 mi WSW 5.8 mph - N/A   Unknown
3:55 PM 32.0 °F 27.5 °F 17.6 °F 55% 30.05 in 10.0 mi SW 4.6 mph - N/A   Unknown
4:15 PM 32.0 °F 25.6 °F 17.6 °F 55% 30.05 in 10.0 mi WSW 6.9 mph - N/A   Unknown
4:35 PM 32.0 °F 28.7 °F 17.6 °F 55% 30.05 in 10.0 mi WSW 3.5 mph - N/A   Unknown
4:55 PM 32.0 °F 28.7 °F 17.6 °F 55% 30.05 in 10.0 mi SW 3.5 mph - N/A   Unknown
5:15 PM 30.2 °F 23.4 °F 17.6 °F 60% 30.05 in 10.0 mi SW 6.9 mph - N/A   Unknown
5:35 PM 26.6 °F 20.0 °F 19.4 °F 74% 30.04 in 10.0 mi SSW 5.8 mph - N/A   Unknown
5:55 PM 24.8 °F 19.1 °F 17.6 °F 74% 30.04 in 10.0 mi South 4.6 mph - N/A   Unknown
6:15 PM 23.0 °F 17.0 °F 17.6 °F 80% 30.04 in 10.0 mi South 4.6 mph - N/A   Unknown
6:35 PM 23.0 °F 17.0 °F 17.6 °F 80% 30.04 in 10.0 mi South 4.6 mph - N/A   Unknown
6:55 PM 21.2 °F 14.9 °F 19.4 °F 93% 30.04 in 10.0 mi South 4.6 mph - N/A   Unknown
7:15 PM 19.4 °F 12.8 °F 19.4 °F 100% 30.04 in 10.0 mi South 4.6 mph - N/A   Unknown
7:35 PM 19.4 °F 10.4 °F 17.6 °F 93% 30.04 in 10.0 mi South 6.9 mph - N/A   Unknown
7:55 PM 19.4 °F 11.5 °F 17.6 °F 93% 30.03 in 10.0 mi South 5.8 mph - N/A   Unknown
8:15 PM 19.4 °F 10.4 °F 17.6 °F 93% 30.03 in 10.0 mi South 6.9 mph - N/A   Unknown
8:35 PM 19.4 °F 11.5 °F 17.6 °F 93% 30.02 in 10.0 mi SSW 5.8 mph - N/A   Unknown
8:55 PM 19.4 °F 14.3 °F 17.6 °F 93% 30.02 in 10.0 mi SSW 3.5 mph - N/A   Unknown
9:15 PM 19.4 °F - 17.6 °F 93% 30.03 in 10.0 mi Calm Calm - N/A   Unknown
9:35 PM 19.4 °F 12.8 °F 17.6 °F 93% 30.02 in 10.0 mi South 4.6 mph - N/A   Unknown
9:55 PM 19.4 °F 12.8 °F 19.4 °F 100% 30.02 in 10.0 mi South 4.6 mph - N/A   Unknown
10:15 PM 19.4 °F 11.5 °F 17.6 °F 93% 30.02 in 10.0 mi South 5.8 mph - N/A   Unknown
10:35 PM 21.2 °F 11.7 °F 19.4 °F 93% 30.01 in 10.0 mi SSW 8.1 mph - N/A   Unknown
10:55 PM 23.0 °F 12.4 °F 21.2 °F 93% 30.01 in 10.0 mi SSW 10.4 mph - N/A   Unknown
11:15 PM 23.0 °F 11.1 °F 21.2 °F 93% 30.01 in 10.0 mi SSW 12.7 mph - N/A   Unknown
11:35 PM 24.8 °F 13.4 °F 21.2 °F 86% 30.00 in 10.0 mi SSW 12.7 mph - N/A   Unknown
11:55 PM 24.8 °F 15.3 °F 23.0 °F 93% 30.00 in 10.0 mi SSW 9.2 mph - N/A   Unknown